Hourly Data Report for October 17, 2014

All times are specified in Local Standard Time (LST). Add 1 hour to adjust for Daylight Saving Time where and when it is observed.

BAKER LAKE A
NUNAVUT

64°17'56.000" N
96°04'40.000" W
18.60 m
2300503
71926
YBK

Download Data

Hourly Data (October 2014)
Hourly Data Report for October 17, 2014
Temp Definition
°C
Dew Point Temp Definition
°C
Rel Hum Definition
%
Wind Dir Definition
10's deg

Wind Spd Definition
km/h
Visibility Definition
km
Stn Press Definition
kPa
Hmdx Definition


Wind Chill Definition


Weather Definition


TIME
00:00 Legend Double Dagger -4.4 -5.7 91 31 17 24.1 102.64   -10 Snow
01:00 Legend Double Dagger -3.8 -6.3 83 36 13 24.1 102.67   -9 Snow
02:00 Legend Double Dagger -4.0 -6.8 81 1 12 24.1 102.70   -9 LegendNANA
03:00 Legend Double Dagger -4.7 -7.3 82 1 8 24.1 102.74   -8 Cloudy
04:00 Legend Double Dagger -4.8 -7.3 83 35 4 24.1 102.77   -7 LegendNANA
05:00 Legend Double Dagger -4.4 -7.7 78 36 9 24.1 102.78   -8 LegendNANA
06:00 Legend Double Dagger -4.6 -8.0 77 36 9 24.1 102.79   -8 Mostly Cloudy
07:00 Legend Double Dagger -4.7 -8.3 76 35 10 32.2 102.80   -9 LegendNANA
08:00 Legend Double Dagger -5.0 -8.1 79 1 11 32.2 102.81   -10 LegendNANA
09:00 Legend Double Dagger -4.9 -8.5 76 36 11 32.2 102.79   -9 Mostly Cloudy
10:00 Legend Double Dagger -5.2 -9.1 74 36 3 32.2 102.77   -7 LegendNANA
11:00 Legend Double Dagger -4.8 -8.9 73 30 8 32.2 102.77   -8 LegendNANA
12:00 Legend Double Dagger -4.7 -8.3 76 28 7 32.2 102.74   -8 Mostly Cloudy
13:00 Legend Double Dagger -4.6 -7.5 80 16 5 32.2 102.70   -7 LegendNANA
14:00 Legend Double Dagger -5.1 -7.2 85 11 3 32.2 102.68   -6 Snow
15:00 Legend Double Dagger -4.9 -6.4 89 30 3 32.2 102.65   -6 Snow
16:00 Legend Double Dagger -4.8 -6.3 89 1 5 32.2 102.62   -7 Snow
17:00 Legend Double Dagger -4.8 -6.8 86 18 10 32.2 102.58   -9 LegendNANA
18:00 Legend Double Dagger -4.8 -7.6 81 21 17 24.1 102.52   -11 Cloudy
19:00 Legend Double Dagger -5.4 -7.2 87 19 13 24.1 102.47   -11 LegendNANA
20:00 Legend Double Dagger -5.6 -7.9 84 18 15 24.1 102.40   -11 LegendNANA
21:00 Legend Double Dagger -5.8 -8.1 84 17 20 24.1 102.34   -13 Cloudy
22:00 Legend Double Dagger -6.4 -8.4 86 17 21 24.1 102.27   -13 LegendNANA
23:00 Legend Double Dagger -7.2 -8.3 92 16 21 24.1 102.21   -15 LegendNANA

Notes on Data Quality.

Legend

  • E = Estimated
  • M = Missing
  • NA = Not Available
  • ‡ = Partner data that is not subject to review by the National Climate Archives
Date modified: